{"data":{"norad_id":45198,"epoch":"2026-05-25T06:00:02.000160Z","epoch_age_seconds":53376,"freshness":"FRESH","line1":"1 45198U 20012W   26145.25002315 -.00037338  00000+0 -40786-3 0  9991","line2":"2 45198  53.0426   1.2470 0000518  73.4158  28.5312 15.62501068  5937","mean_motion":15.62501068,"eccentricity":5.18e-5,"inclination_deg":53.0426,"raan_deg":1.247,"arg_perigee_deg":73.4158,"mean_anomaly_deg":28.5312,"bstar":-0.00040786,"rev_number":593,"period_min":92.15993700684,"perigee_km":380.08513409393,"apogee_km":380.78532217677,"semimajor_km":6758.5722281354,"source":"CELESTRAK","updated_at":"2026-05-25T13:38:16.383006Z"}}